[[{"header":{"parameterUnit":"m.s-1","parameterCategory":2,"la1":30.2991,"la2":30.254,"lo1":-89.0895,"lo2":-89.0444,"dy":0.0017,"dx":0.0017,"nx":28,"ny":28,"refTime":"2024-10-14T09:00:00:Z","depth":"0","parameterNumber":2,"parameterNumberName":"U-component_of_CURRENTS"},"data":[0,0,0,0,0,0,0,0,0,0,0,0,0,0,0,0,0,0,0,0,0,0,0,0,0,0,0,0,0,0,0,0,0,0,0,0,0,0,0,0,0,0,0,0,0,0,0,0,0,0,0,0,0,0,0,0,0,0,-0.2313,-0.2313,0,-0.233,-0.233,-0.233,-0.2316,-0.2315,-0.2315,-0.2314,-0.2286,-0.2285,-0.2285,0,0,0,0,0,0,0,0,0,0,0,0,0,-0.2189,-0.2192,-0.2313,-0.2313,-0.2314,-0.233,-0.233,-0.233,-0.2316,-0.2315,-0.2315,-0.2314,-0.2286,-0.2285,-0.2285,0,0,0,0,0,0,0,0,0,0,0,0,0,-0.2227,-0.2193,-0.2313,-0.2309,-0.2309,-0.233,-0.233,-0.233,-0.2316,-0.2315,-0.2315,-0.2314,-0.2286,-0.2285,-0.2285,-0.2298,0,0,-0.2284,-0.2283,0,0,0,0,0,0,0,0,-0.2225,-0.2232,-0.2309,-0.2309,-0.2309,-0.2321,-0.2275,-0.2317,-0.2316,-0.2313,-0.2314,-0.2314,-0.2294,-0.2293,-0.2297,-0.2296,-0.2295,-0.2283,-0.2283,-0.2283,-0.2283,0,0,0,0,0,0,0,-0.2223,-0.2231,-0.2319,-0.231,-0.231,-0.2279,-0.2284,-0.2283,-0.2306,-0.2313,-0.2312,-0.2315,-0.2293,-0.2298,-0.2296,-0.2295,-0.2284,-0.2283,-0.2283,-0.2283,-0.2273,-0.2273,0,0,0,0,0,0,-0.2228,-0.2229,-0.2318,-0.2319,-0.2265,-0.2282,-0.2288,-0.2317,-0.2307,-0.2305,-0.2316,-0.2315,-0.2299,-0.2297,-0.2295,-0.2289,-0.2283,-0.2283,-0.2282,-0.2273,-0.2273,-0.2273,0,0,0,0,0,0,-0.2226,-0.2237,-0.2318,-0.2273,-0.2281,-0.2286,-0.2318,-0.2318,-0.2326,-0.231,-0.2307,-0.2325,-0.2298,-0.2296,-0.2293,-0.2289,-0.2282,-0.2282,-0.2273,-0.2273,-0.2273,-0.229,0,0,0,0,0,0,-0.2223,-0.2237,-0.2268,-0.2275,-0.2284,-0.2336,-0.2319,-0.2319,-0.233,-0.2328,-0.2317,-0.2313,-0.2298,-0.2294,-0.2292,-0.2288,-0.2282,-0.2273,-0.2273,-0.2273,-0.229,-0.2291,-0.2292,0,0,0,0,0,-0.2219,-0.2266,-0.227,-0.2281,-0.2326,-0.2337,-0.2339,-0.2337,-0.2331,-0.2341,-0.2327,-0.2314,-0.2292,-0.2294,-0.2292,-0.2287,-0.2273,-0.2273,-0.2273,-0.2289,-0.2291,-0.2292,0,0,0,0,0,0,-0.2239,-0.2269,-0.2274,-0.2332,-0.2335,-0.2335,-0.2352,-0.2345,-0.2344,-0.2342,-0.2321,-0.2317,-0.231,-0.2301,-0.2303,-0.2284,-0.2278,-0.2278,-0.2291,-0.2292,-0.2293,-0.2277,-0.2281,0,0,0,0,0,-0.2257,-0.2293,-0.2308,-0.2351,-0.2358,-0.2355,-0.2363,-0.2358,-0.2354,-0.2354,-0.2339,-0.2323,-0.231,-0.2303,-0.2293,-0.229,-0.2261,-0.2284,-0.2285,-0.2286,-0.2272,-0.2234,-0.223,-0.2273,-0.2273,-0.2273,0,0,-0.2277,-0.2297,-0.232,-0.2355,-0.236,-0.2367,-0.2358,-0.2373,-0.2367,-0.2351,-0.2342,-0.2331,-0.2312,-0.2302,-0.2298,-0.2293,-0.2259,-0.2286,-0.2287,-0.2272,-0.2233,-0.2229,-0.2225,-0.2274,-0.2274,-0.2274,0,0,-0.2307,-0.2352,-0.2376,-0.2383,-0.2392,-0.239,-0.2395,-0.2394,-0.2385,-0.2383,-0.236,-0.2343,-0.2335,-0.2307,-0.2295,-0.2298,-0.2269,-0.23,-0.229,-0.2254,-0.225,-0.2245,-0.2204,-0.2196,-0.2298,-0.2298,-0.2298,0,-0.2331,-0.2361,-0.2383,-0.2395,-0.2395,-0.2399,-0.2402,-0.2402,-0.2393,-0.2376,-0.2382,-0.234,-0.2332,-0.2295,-0.2295,-0.2299,-0.2273,-0.2288,-0.2254,-0.2249,-0.2245,-0.2203,-0.2194,-0.2298,-0.2298,-0.2298,-0.2298,0,-0.2352,-0.2382,-0.2396,-0.2409,-0.2417,-0.2425,-0.242,-0.2416,-0.2408,-0.2393,-0.2363,-0.2346,-0.2312,-0.2313,-0.2308,-0.2267,-0.2258,-0.2263,-0.225,-0.2241,-0.2198,-0.2188,-0.23,-0.2299,-0.2299,-0.2299,0,0,-0.2373,-0.2407,-0.2406,-0.2406,-0.242,-0.2421,-0.2418,-0.2401,-0.238,-0.2374,-0.2335,-0.2319,-0.2302,-0.2286,-0.227,-0.2242,-0.2198,-0.2241,-0.2239,-0.2197,-0.2111,-0.2147,-0.2139,-0.22,-0.2199,-0.2197,-0.2094,0,-0.2372,-0.2394,-0.2406,-0.2409,-0.2414,-0.2414,-0.2404,-0.239,-0.2375,-0.2343,-0.2317,-0.2286,-0.2294,-0.2274,-0.2248,-0.2206,-0.2173,-0.2225,-0.2126,-0.2123,-0.2154,-0.2129,-0.2184,-0.21,-0.2084,-0.2082,-0.2081,0,-0.2356,-0.2376,-0.2386,-0.2391,-0.2391,-0.2394,-0.2362,-0.2355,-0.2321,-0.2307,-0.2273,-0.2255,-0.2203,-0.2222,-0.2135,-0.2168,-0.2138,-0.2112,-0.2108,-0.2125,-0.2141,-0.2106,-0.2083,-0.2046,-0.2066,-0.2067,-0.2068,0,-0.2312,-0.2344,-0.2349,-0.2355,-0.2372,-0.2362,-0.2363,-0.2338,-0.2312,-0.2278,-0.2254,-0.2202,-0.2168,-0.2121,-0.2083,-0.21,-0.1994,-0.2009,-0.2005,-0.2007,-0.2024,-0.2031,-0.1951,-0.1944,-0.1944,-0.1945,-0.1945,0,-0.228,-0.2274,-0.2334,-0.2332,-0.2319,-0.2342,-0.2305,-0.23,-0.2274,-0.2244,-0.223,-0.2198,-0.2144,-0.2089,-0.2056,-0.1999,-0.1968,-0.1987,-0.198,-0.2033,-0.2042,-0.1988,-0.1971,-0.1941,-0.1942,-0.1942,-0.1943,0,-0.22,-0.2247,-0.2249,-0.2288,-0.2295,-0.2281,-0.2274,-0.2247,-0.2242,-0.2201,-0.219,-0.2166,-0.2118,-0.2062,-0.1983,-0.1964,-0.1889,-0.1899,-0.1967,-0.1971,-0.1952,-0.1935,-0.1818,-0.1776,-0.1865,-0.1865,-0.1866,0,-0.2151,-0.2153,-0.2204,-0.2204,-0.2217,-0.2211,-0.2199,-0.2215,-0.2196,-0.2189,-0.2169,-0.2132,-0.2136,-0.2037,-0.2011,-0.1948,-0.1884,-0.192,-0.1969,-0.1944,-0.1917,-0.1889,-0.186,-0.1988,-0.1989,-0.199,-0.1991,0,-0.2046,-0.2075,-0.2083,-0.2101,-0.2107,-0.2114,-0.2116,-0.211,-0.2134,-0.2138,-0.2167,-0.2189,-0.216,-0.2158,-0.2079,-0.2033,-0.1905,-0.1939,-0.1887,-0.1982,-0.1968,-0.1929,-0.2055,-0.2,-0.1999,-0.1998,-0.1998,-0.1997,-0.1946,-0.1931,-0.1958,-0.1956,-0.1991,-0.2022,-0.1991,-0.2036,-0.2052,-0.2062,-0.2155,-0.2192,-0.2236,-0.2185,-0.2147,-0.2068,-0.1994,-0.1986,-0.1955,-0.192,-0.1917,-0.2066,-0.2029,-0.2028,-0.2028,-0.2027,-0.2027,0,-0.1795,-0.1797,-0.1803,-0.1825,-0.1841,-0.1898,-0.1921,-0.1889,-0.1914,-0.2004,-0.2066,-0.2218,-0.2248,-0.2242,-0.223,-0.212,-0.206,-0.1977,-0.1943,-0.1901,-0.2015,-0.2062,-0.2063,-0.2063,-0.2063,-0.2063,-0.2063,-0.2063,-0.1708,-0.1659,-0.1672,-0.1661,-0.1694,-0.1678,-0.1683,-0.1692,-0.1722,-0.1808,-0.192,-0.2069,-0.2141,-0.2284,-0.2206,-0.2109,-0.1969,-0.1906,-0.18,-0.1898,-0.1897,-0.1895,-0.1934,-0.1908,-0.1908,-0.1708,-0.1706,-0.1705]},{"header":{"parameterUnit":"m.s-1","parameterCategory":2,"la1":30.2991,"la2":30.254,"lo1":-89.0895,"lo2":-89.0444,"dy":0.0017,"dx":0.0017,"nx":28,"ny":28,"refTime":"2024-10-14T09:00:00:Z","depth":"0","parameterNumber":3,"parameterNumberName":"V-component_of_CURRENTS"},"data":[0,0,0,0,0,0,0,0,0,0,0,0,0,0,0,0,0,0,0,0,0,0,0,0,0,0,0,0,0,0,0,0,0,0,0,0,0,0,0,0,0,0,0,0,0,0,0,0,0,0,0,0,0,0,0,0,0,0,-0.0934,-0.0934,0,-0.0924,-0.0924,-0.0924,-0.0926,-0.0926,-0.0926,-0.0926,-0.0852,-0.085,-0.0848,0,0,0,0,0,0,0,0,0,0,0,0,0,-0.0821,-0.0824,-0.0934,-0.0934,-0.0934,-0.0924,-0.0924,-0.0924,-0.0926,-0.0926,-0.0926,-0.0926,-0.0853,-0.085,-0.0848,0,0,0,0,0,0,0,0,0,0,0,0,0,-0.0848,-0.0825,-0.0934,-0.0932,-0.0932,-0.0924,-0.0924,-0.0924,-0.0926,-0.0926,-0.0926,-0.0926,-0.0853,-0.0851,-0.0848,-0.0829,0,0,-0.0839,-0.0837,0,0,0,0,0,0,0,0,-0.0847,-0.0853,-0.0933,-0.0932,-0.0932,-0.0925,-0.0857,-0.0889,-0.0926,-0.093,-0.0926,-0.0926,-0.0869,-0.0865,-0.0866,-0.0825,-0.0822,-0.0838,-0.0836,-0.0835,-0.0834,0,0,0,0,0,0,0,-0.0845,-0.0852,-0.0932,-0.0932,-0.0932,-0.0886,-0.0891,-0.0863,-0.09,-0.093,-0.0929,-0.0925,-0.0869,-0.0869,-0.0865,-0.0821,-0.0838,-0.0836,-0.0834,-0.0833,-0.076,-0.076,0,0,0,0,0,0,-0.0851,-0.0852,-0.0932,-0.0931,-0.0886,-0.0888,-0.0894,-0.0928,-0.0901,-0.0897,-0.0925,-0.0926,-0.0875,-0.0868,-0.0862,-0.0833,-0.0835,-0.0832,-0.0831,-0.076,-0.076,-0.076,0,0,0,0,0,0,-0.0849,-0.086,-0.0933,-0.0887,-0.0893,-0.0891,-0.0929,-0.0928,-0.0931,-0.0899,-0.0894,-0.0928,-0.0874,-0.0866,-0.0839,-0.083,-0.0831,-0.0828,-0.076,-0.076,-0.076,-0.0778,0,0,0,0,0,0,-0.0847,-0.086,-0.0885,-0.0889,-0.0896,-0.0936,-0.0928,-0.0928,-0.0927,-0.0927,-0.0899,-0.0893,-0.0874,-0.0844,-0.0836,-0.0826,-0.0826,-0.076,-0.076,-0.076,-0.0777,-0.0778,-0.0779,0,0,0,0,0,-0.0843,-0.0879,-0.0887,-0.0896,-0.0933,-0.0937,-0.0936,-0.0933,-0.0927,-0.0934,-0.091,-0.0894,-0.0837,-0.0841,-0.0832,-0.0821,-0.076,-0.076,-0.076,-0.0777,-0.0778,-0.0779,0,0,0,0,0,0,-0.085,-0.0883,-0.0892,-0.094,-0.094,-0.0937,-0.0942,-0.0935,-0.0923,-0.0919,-0.089,-0.0882,-0.0855,-0.0837,-0.0842,-0.08,-0.0796,-0.0794,-0.0812,-0.0813,-0.0814,-0.0795,-0.0824,0,0,0,0,0,-0.0863,-0.0898,-0.0911,-0.0947,-0.0951,-0.0945,-0.0945,-0.0942,-0.093,-0.0926,-0.0904,-0.0876,-0.0846,-0.083,-0.0806,-0.078,-0.0748,-0.0768,-0.0769,-0.0769,-0.0749,-0.0706,-0.0701,-0.0758,-0.0758,-0.0758,0,0,-0.0877,-0.0896,-0.0918,-0.0949,-0.0951,-0.0948,-0.0947,-0.095,-0.0936,-0.0916,-0.0895,-0.0877,-0.0841,-0.0815,-0.0801,-0.0798,-0.0738,-0.0769,-0.077,-0.0748,-0.0705,-0.07,-0.0695,-0.0758,-0.0758,-0.0758,0,0,-0.0895,-0.0939,-0.096,-0.0959,-0.096,-0.0956,-0.0957,-0.0953,-0.0945,-0.0923,-0.0902,-0.0877,-0.0841,-0.0811,-0.0789,-0.0776,-0.0745,-0.0777,-0.0761,-0.0721,-0.0716,-0.0711,-0.0671,-0.0662,-0.0776,-0.0776,-0.0776,0,-0.0905,-0.0939,-0.0962,-0.0963,-0.0953,-0.0958,-0.095,-0.0945,-0.0928,-0.0907,-0.0918,-0.085,-0.0832,-0.0775,-0.0778,-0.0775,-0.075,-0.0762,-0.0721,-0.0715,-0.071,-0.067,-0.066,-0.0777,-0.0777,-0.0777,-0.0776,0,-0.0922,-0.0941,-0.095,-0.0957,-0.0951,-0.0951,-0.0938,-0.0929,-0.0918,-0.0901,-0.0856,-0.0835,-0.0789,-0.0788,-0.0779,-0.0728,-0.0723,-0.073,-0.0719,-0.0705,-0.0664,-0.0653,-0.0778,-0.0778,-0.0777,-0.0777,0,0,-0.0954,-0.0962,-0.0961,-0.095,-0.0945,-0.0938,-0.0915,-0.0887,-0.0856,-0.0848,-0.0801,-0.0768,-0.0759,-0.0733,-0.0722,-0.0693,-0.0647,-0.0698,-0.0695,-0.0656,-0.0556,-0.0529,-0.0514,-0.0651,-0.0649,-0.0648,-0.0546,0,-0.0953,-0.0955,-0.095,-0.0931,-0.0927,-0.0908,-0.088,-0.0852,-0.0829,-0.0792,-0.0763,-0.0723,-0.0737,-0.0717,-0.069,-0.0647,-0.0617,-0.0673,-0.0574,-0.0571,-0.0548,-0.05,-0.0468,-0.0373,-0.0535,-0.0534,-0.0532,0,-0.0959,-0.0955,-0.0947,-0.0907,-0.0901,-0.0884,-0.0829,-0.0802,-0.0752,-0.0733,-0.0693,-0.0674,-0.0616,-0.0647,-0.0555,-0.0591,-0.0572,-0.055,-0.0546,-0.05,-0.0523,-0.041,-0.0346,-0.0243,-0.0515,-0.0516,-0.0518,0,-0.0963,-0.0942,-0.0934,-0.0925,-0.0891,-0.0865,-0.0836,-0.0785,-0.0751,-0.0693,-0.0665,-0.0602,-0.0567,-0.0523,-0.0482,-0.0514,-0.0387,-0.0426,-0.038,-0.0379,-0.0317,-0.0313,-0.0134,-0.0365,-0.0365,-0.0366,-0.0366,0,-0.0965,-0.095,-0.0936,-0.0932,-0.0892,-0.0862,-0.0809,-0.0774,-0.0718,-0.0684,-0.0637,-0.0598,-0.0537,-0.0468,-0.0445,-0.0358,-0.0351,-0.0349,-0.0339,-0.0324,-0.0322,-0.0203,-0.0164,-0.0362,-0.0363,-0.0363,-0.0364,0,-0.0973,-0.0972,-0.0953,-0.0918,-0.0902,-0.0872,-0.0806,-0.077,-0.0715,-0.0668,-0.065,-0.0571,-0.048,-0.0409,-0.0323,-0.0299,-0.0165,-0.0212,-0.0196,-0.0186,-0.006,-0.0024,0.017,0.0183,-0.0133,-0.0131,-0.013,0,-0.098,-0.098,-0.0951,-0.0935,-0.0919,-0.0872,-0.0841,-0.0782,-0.0755,-0.0663,-0.065,-0.0539,-0.0488,-0.0315,-0.022,-0.0121,-0.0094,-0.005,-0.0107,-0.0012,0.0035,0.0046,0.0042,-0.0035,-0.0034,-0.0032,-0.0031,0,-0.0979,-0.0978,-0.096,-0.0937,-0.0912,-0.0881,-0.0842,-0.0831,-0.0773,-0.0741,-0.0693,-0.0635,-0.0436,-0.0288,-0.0121,-0.0074,0.0038,-0.0017,0.0089,0.0151,0.0171,0.0174,-0.0148,-0.0017,-0.0018,-0.0019,-0.002,-0.0021,-0.0969,-0.0958,-0.0945,-0.0916,-0.0901,-0.0906,-0.0905,-0.0889,-0.0876,-0.0852,-0.0767,-0.0677,-0.0375,-0.0128,-0.0041,0.0204,0.014,0.0234,0.0277,0.0284,0.0292,0.0003,0.0132,0.0132,0.0131,0.0131,0.0131,0,-0.0943,-0.0934,-0.0916,-0.0904,-0.0909,-0.0903,-0.0913,-0.0938,-0.0973,-0.0919,-0.0882,-0.0568,-0.0281,0.0005,0.0383,0.0501,0.0478,0.0549,0.0585,0.0565,0.0333,0.0331,0.0501,0.0501,0.0501,0.0501,0.0501,0.05,-0.0923,-0.0904,-0.0899,-0.0909,-0.0917,-0.096,-0.0989,-0.1046,-0.1033,-0.0962,-0.0807,-0.0685,-0.0176,0.0504,0.084,0.0838,0.0888,0.0893,0.0896,0.0761,0.0734,0.0709,0.0718,0.0967,0.0967,0.1095,0.1096,0.1098]}],[{"header":{"parameterUnit":"m.s-1","parameterCategory":2,"la1":30.2991,"la2":30.254,"lo1":-89.0895,"lo2":-89.0444,"dy":0.0017,"dx":0.0017,"nx":28,"ny":28,"refTime":"2024-10-14T09:00:00:Z","depth":"2","parameterNumber":2,"parameterNumberName":"U-component_of_CURRENTS"},"data":[0,0,0,0,0,0,0,0,0,0,0,0,0,0,0,0,0,0,0,0,0,0,0,0,0,0,0,0,0,0,0,0,0,0,0,0,0,0,0,0,0,0,0,0,0,0,0,0,0,0,0,0,0,0,0,0,0,0,-0.2086,-0.2087,0,-0.2181,-0.2182,-0.2183,-0.2192,-0.2192,-0.2191,-0.2191,-0.2183,-0.2183,-0.2183,0,0,0,0,0,0,0,0,0,0,0,0,0,-0.1962,-0.1963,-0.2086,-0.2087,-0.2089,-0.2181,-0.2182,-0.2183,-0.2192,-0.2192,-0.2191,-0.2191,-0.2183,-0.2183,-0.2183,0,0,0,0,0,0,0,0,0,0,0,0,0,-0.2026,-0.1963,-0.2085,-0.2109,-0.2113,-0.2181,-0.2182,-0.2183,-0.2192,-0.2192,-0.2191,-0.219,-0.2183,-0.2183,-0.2183,-0.2199,0,0,-0.2184,-0.2184,0,0,0,0,0,0,0,0,-0.2023,-0.203,-0.2104,-0.2108,-0.2112,-0.2179,-0.2136,-0.2185,-0.2192,-0.2156,-0.2191,-0.219,-0.2176,-0.2177,-0.219,-0.2199,-0.2198,-0.2184,-0.2184,-0.2185,-0.2185,0,0,0,0,0,0,0,-0.2018,-0.2027,-0.2118,-0.2106,-0.2111,-0.2133,-0.214,-0.2146,-0.2162,-0.2159,-0.2161,-0.2182,-0.2177,-0.219,-0.2189,-0.2198,-0.2184,-0.2184,-0.2185,-0.2185,-0.2176,-0.2176,0,0,0,0,0,0,-0.2017,-0.2022,-0.2115,-0.2121,-0.2071,-0.2136,-0.2144,-0.2153,-0.2165,-0.2168,-0.2182,-0.2182,-0.2189,-0.2189,-0.2189,-0.2183,-0.2185,-0.2185,-0.2185,-0.2177,-0.2176,-0.2176,0,0,0,0,0,0,-0.2013,-0.2023,-0.2111,-0.2079,-0.2092,-0.2139,-0.215,-0.2156,-0.2178,-0.2184,-0.2184,-0.2199,-0.2189,-0.2189,-0.2186,-0.2183,-0.2185,-0.2185,-0.2177,-0.2176,-0.2176,-0.2186,0,0,0,0,0,0,-0.2009,-0.2021,-0.2051,-0.2079,-0.2094,-0.215,-0.2151,-0.2158,-0.2194,-0.2194,-0.2199,-0.2197,-0.2188,-0.2186,-0.2187,-0.2184,-0.2186,-0.2178,-0.2177,-0.2176,-0.2186,-0.2186,-0.2186,0,0,0,0,0,-0.2004,-0.2048,-0.2051,-0.2064,-0.2125,-0.2151,-0.216,-0.2188,-0.2195,-0.2204,-0.22,-0.2197,-0.2181,-0.2186,-0.2187,-0.2184,-0.2178,-0.2177,-0.2176,-0.2187,-0.2186,-0.2186,0,0,0,0,0,0,-0.204,-0.2055,-0.2058,-0.2113,-0.2128,-0.2155,-0.2198,-0.2197,-0.2206,-0.2213,-0.22,-0.2198,-0.2192,-0.2188,-0.2194,-0.2177,-0.2176,-0.2176,-0.2184,-0.2183,-0.2183,-0.2186,-0.2186,0,0,0,0,0,-0.2054,-0.2079,-0.209,-0.2141,-0.2151,-0.2172,-0.2198,-0.2201,-0.2209,-0.2215,-0.221,-0.2203,-0.219,-0.2187,-0.2179,-0.218,-0.2159,-0.2174,-0.2174,-0.2174,-0.2175,-0.2136,-0.2132,-0.2172,-0.2172,-0.2173,0,0,-0.2096,-0.2104,-0.2128,-0.2149,-0.2174,-0.2181,-0.2184,-0.2222,-0.222,-0.2212,-0.222,-0.2208,-0.219,-0.2181,-0.2178,-0.2177,-0.215,-0.2173,-0.2173,-0.2174,-0.2134,-0.2131,-0.2127,-0.2172,-0.2172,-0.2172,0,0,-0.2156,-0.2183,-0.2204,-0.2202,-0.2223,-0.2225,-0.2231,-0.2243,-0.2244,-0.2246,-0.2229,-0.2212,-0.2212,-0.2183,-0.2172,-0.2167,-0.215,-0.2167,-0.2169,-0.2131,-0.2127,-0.2124,-0.2088,-0.2082,-0.2166,-0.2166,-0.2166,0,-0.2203,-0.2214,-0.2221,-0.222,-0.2229,-0.2237,-0.2242,-0.2247,-0.2251,-0.224,-0.225,-0.2218,-0.2208,-0.2171,-0.2169,-0.2166,-0.2145,-0.2174,-0.213,-0.2127,-0.2123,-0.2087,-0.208,-0.2166,-0.2166,-0.2166,-0.2166,0,-0.2237,-0.2254,-0.2274,-0.2258,-0.2268,-0.2283,-0.227,-0.227,-0.2274,-0.2263,-0.2239,-0.2223,-0.2197,-0.2189,-0.2184,-0.2146,-0.214,-0.2136,-0.2133,-0.212,-0.2083,-0.2075,-0.2167,-0.2166,-0.2166,-0.2166,0,0,-0.2284,-0.2295,-0.2291,-0.228,-0.2279,-0.2277,-0.2282,-0.2264,-0.2251,-0.225,-0.2224,-0.2205,-0.2195,-0.218,-0.216,-0.2133,-0.2093,-0.2131,-0.2129,-0.2099,-0.201,-0.2042,-0.2036,-0.2083,-0.2082,-0.2081,-0.1993,0,-0.2296,-0.2299,-0.2297,-0.2295,-0.2291,-0.2282,-0.2276,-0.226,-0.2255,-0.223,-0.2205,-0.2181,-0.2191,-0.2175,-0.2151,-0.2099,-0.2073,-0.2117,-0.2025,-0.2022,-0.2055,-0.2028,-0.1873,-0.1785,-0.1986,-0.1984,-0.1983,0,-0.228,-0.2286,-0.2292,-0.2278,-0.2276,-0.2277,-0.2248,-0.2243,-0.2214,-0.2207,-0.2186,-0.2168,-0.2121,-0.2139,-0.2056,-0.2084,-0.2056,-0.2024,-0.202,-0.2042,-0.204,-0.1831,-0.1763,-0.197,-0.1971,-0.1972,-0.1973,0,-0.2244,-0.2256,-0.2261,-0.2256,-0.2258,-0.2254,-0.2255,-0.2236,-0.2213,-0.2192,-0.2172,-0.2129,-0.2098,-0.2054,-0.2013,-0.2026,-0.1926,-0.1928,-0.1927,-0.1928,-0.1774,-0.1766,-0.1877,-0.1877,-0.1877,-0.1877,-0.1877,0,-0.2212,-0.2199,-0.2248,-0.2238,-0.2226,-0.2239,-0.2213,-0.221,-0.2192,-0.2164,-0.2161,-0.2135,-0.2078,-0.2024,-0.1991,-0.1937,-0.1905,-0.1922,-0.1907,-0.1776,-0.1768,-0.1916,-0.1922,-0.1874,-0.1875,-0.1875,-0.1876,0,-0.2138,-0.2179,-0.217,-0.2199,-0.2205,-0.2192,-0.2184,-0.2152,-0.2167,-0.2131,-0.2122,-0.2106,-0.2063,-0.2007,-0.1926,-0.1906,-0.1849,-0.1843,-0.1704,-0.1677,-0.1879,-0.1886,-0.1815,-0.1815,-0.1815,-0.1815,-0.1816,0,-0.2093,-0.2092,-0.2128,-0.2122,-0.2135,-0.2127,-0.2108,-0.2127,-0.2082,-0.2121,-0.2075,-0.2073,-0.2081,-0.1984,-0.1915,-0.1845,-0.1858,-0.1653,-0.1666,-0.188,-0.1871,-0.1878,-0.1885,-0.1445,-0.1442,-0.144,-0.1438,0,-0.1994,-0.2022,-0.2019,-0.2026,-0.2021,-0.1996,-0.1974,-0.1945,-0.197,-0.2003,-0.2052,-0.2106,-0.2065,-0.1947,-0.1856,-0.178,-0.1654,-0.1612,-0.1813,-0.1526,-0.1535,-0.1527,-0.1544,-0.1417,-0.1419,-0.1421,-0.1422,-0.1423,-0.1901,-0.1883,-0.1898,-0.1887,-0.1898,-0.1859,-0.1797,-0.182,-0.1824,-0.1818,-0.1938,-0.197,-0.1888,-0.1731,-0.1628,-0.1522,-0.165,-0.1505,-0.1508,-0.1515,-0.153,-0.1543,-0.1428,-0.143,-0.1431,-0.1433,-0.1434,0,-0.1747,-0.1753,-0.1747,-0.1727,-0.1691,-0.1761,-0.1685,-0.1597,-0.1624,-0.1693,-0.1759,-0.1566,-0.1523,-0.1465,-0.1339,-0.1315,-0.125,-0.1191,-0.1097,-0.1119,-0.1139,-0.1131,-0.0924,-0.0922,-0.0921,-0.092,0,0,-0.1661,-0.1601,-0.161,-0.1522,-0.154,-0.143,-0.1388,-0.1353,-0.1327,-0.1327,-0.1364,-0.1413,-0.1476,-0.1196,-0.1111,-0.1037,-0.1057,-0.096,-0.137,-0.1285,-0.1303,-0.132,-0.1335,0,0,0,0,0]},{"header":{"parameterUnit":"m.s-1","parameterCategory":2,"la1":30.2991,"la2":30.254,"lo1":-89.0895,"lo2":-89.0444,"dy":0.0017,"dx":0.0017,"nx":28,"ny":28,"refTime":"2024-10-14T09:00:00:Z","depth":"2","parameterNumber":3,"parameterNumberName":"V-component_of_CURRENTS"},"data":[0,0,0,0,0,0,0,0,0,0,0,0,0,0,0,0,0,0,0,0,0,0,0,0,0,0,0,0,0,0,0,0,0,0,0,0,0,0,0,0,0,0,0,0,0,0,0,0,0,0,0,0,0,0,0,0,0,0,-0.062,-0.062,0,-0.0648,-0.0648,-0.0648,-0.067,-0.067,-0.067,-0.0671,-0.0643,-0.0642,-0.0641,0,0,0,0,0,0,0,0,0,0,0,0,0,-0.0557,-0.0558,-0.062,-0.062,-0.0621,-0.0647,-0.0648,-0.0648,-0.067,-0.067,-0.067,-0.0671,-0.0644,-0.0642,-0.0641,0,0,0,0,0,0,0,0,0,0,0,0,0,-0.0584,-0.0559,-0.062,-0.0635,-0.0637,-0.0647,-0.0648,-0.0648,-0.067,-0.067,-0.0671,-0.0671,-0.0644,-0.0642,-0.0641,-0.0624,0,0,-0.0636,-0.0636,0,0,0,0,0,0,0,0,-0.0582,-0.0586,-0.0633,-0.0634,-0.0636,-0.0656,-0.0616,-0.0637,-0.067,-0.0657,-0.0671,-0.0671,-0.0642,-0.0641,-0.0645,-0.0622,-0.0621,-0.0636,-0.0635,-0.0635,-0.0634,0,0,0,0,0,0,0,-0.0581,-0.0585,-0.063,-0.0633,-0.0635,-0.0631,-0.0635,-0.062,-0.0645,-0.0658,-0.066,-0.0664,-0.0643,-0.0647,-0.0645,-0.0621,-0.0636,-0.0635,-0.0634,-0.0634,-0.0555,-0.0554,0,0,0,0,0,0,-0.058,-0.0583,-0.0629,-0.0631,-0.061,-0.0632,-0.0637,-0.0649,-0.0647,-0.0648,-0.0663,-0.0664,-0.0649,-0.0646,-0.0644,-0.0628,-0.0635,-0.0633,-0.0633,-0.0556,-0.0555,-0.0553,0,0,0,0,0,0,-0.0578,-0.0584,-0.0628,-0.0608,-0.0613,-0.0633,-0.0646,-0.0649,-0.0665,-0.0652,-0.0651,-0.0677,-0.0649,-0.0646,-0.0617,-0.0627,-0.0633,-0.0631,-0.0558,-0.0556,-0.0554,-0.0593,0,0,0,0,0,0,-0.0577,-0.0583,-0.0604,-0.0608,-0.0614,-0.063,-0.0646,-0.0649,-0.0666,-0.0668,-0.0663,-0.066,-0.0649,-0.0619,-0.0616,-0.0625,-0.063,-0.0559,-0.0557,-0.0555,-0.0593,-0.0593,-0.0592,0,0,0,0,0,-0.0574,-0.0597,-0.0605,-0.0611,-0.0638,-0.063,-0.0632,-0.0647,-0.0666,-0.0664,-0.0653,-0.0661,-0.0603,-0.0617,-0.0613,-0.0622,-0.056,-0.0557,-0.0555,-0.0593,-0.0593,-0.0592,0,0,0,0,0,0,-0.0602,-0.0602,-0.061,-0.0639,-0.0632,-0.0634,-0.0657,-0.0653,-0.0647,-0.0661,-0.0644,-0.0639,-0.062,-0.0604,-0.062,-0.0587,-0.0583,-0.058,-0.0614,-0.0613,-0.0613,-0.062,-0.0629,0,0,0,0,0,-0.0613,-0.0629,-0.0617,-0.065,-0.065,-0.0655,-0.0661,-0.0661,-0.0653,-0.0654,-0.0649,-0.0633,-0.0604,-0.0595,-0.0573,-0.0555,-0.053,-0.0555,-0.0555,-0.0555,-0.0554,-0.0509,-0.0506,-0.0545,-0.0545,-0.0545,0,0,-0.0648,-0.0644,-0.0663,-0.0656,-0.0669,-0.0661,-0.0661,-0.0675,-0.0668,-0.0649,-0.0658,-0.0635,-0.0596,-0.0575,-0.0566,-0.0566,-0.0529,-0.0551,-0.0552,-0.0551,-0.0506,-0.0503,-0.05,-0.0543,-0.0543,-0.0543,0,0,-0.0696,-0.0711,-0.0726,-0.0705,-0.07,-0.0693,-0.0694,-0.069,-0.0692,-0.0676,-0.066,-0.0634,-0.061,-0.0578,-0.0557,-0.0535,-0.0528,-0.0535,-0.0546,-0.0503,-0.05,-0.0497,-0.0465,-0.0459,-0.0538,-0.0538,-0.0538,0,-0.073,-0.0741,-0.0731,-0.0716,-0.0708,-0.0705,-0.0699,-0.0695,-0.0681,-0.0667,-0.0683,-0.0627,-0.0608,-0.0555,-0.0554,-0.0538,-0.0516,-0.0559,-0.0505,-0.0501,-0.0498,-0.0466,-0.0459,-0.0539,-0.0539,-0.0539,-0.0539,0,-0.076,-0.0766,-0.0776,-0.0755,-0.074,-0.074,-0.0713,-0.0708,-0.0715,-0.0697,-0.0664,-0.0634,-0.0593,-0.0588,-0.057,-0.053,-0.0523,-0.0512,-0.0516,-0.0497,-0.0463,-0.0455,-0.0541,-0.0541,-0.054,-0.054,0,0,-0.0821,-0.0802,-0.0799,-0.078,-0.0752,-0.0734,-0.0728,-0.0695,-0.0678,-0.0675,-0.0645,-0.0612,-0.0602,-0.0574,-0.0551,-0.0525,-0.0491,-0.0518,-0.0515,-0.0503,-0.0404,-0.0365,-0.0352,-0.0476,-0.0475,-0.0474,-0.0394,0,-0.0842,-0.0826,-0.0804,-0.0786,-0.0775,-0.0741,-0.0723,-0.0689,-0.0675,-0.0645,-0.0614,-0.058,-0.0593,-0.0573,-0.0552,-0.0486,-0.047,-0.0514,-0.0409,-0.0406,-0.0387,-0.0341,-0.0273,-0.0193,-0.0386,-0.0384,-0.0383,0,-0.0852,-0.0836,-0.083,-0.0776,-0.0766,-0.0751,-0.07,-0.0677,-0.0628,-0.0615,-0.0586,-0.0561,-0.0508,-0.0534,-0.0444,-0.0472,-0.0451,-0.042,-0.0415,-0.0359,-0.0351,-0.0239,-0.0171,-0.037,-0.0371,-0.0372,-0.0373,0,-0.0871,-0.0836,-0.0834,-0.0814,-0.0766,-0.0749,-0.0722,-0.0674,-0.0643,-0.0594,-0.0568,-0.0513,-0.0477,-0.0434,-0.0382,-0.0408,-0.0287,-0.0305,-0.0257,-0.0255,-0.0164,-0.0155,-0.0265,-0.0265,-0.0265,-0.0266,-0.0266,0,-0.0879,-0.0863,-0.0841,-0.0829,-0.0797,-0.0756,-0.0717,-0.0683,-0.0632,-0.0596,-0.0557,-0.0522,-0.0453,-0.0383,-0.0354,-0.0262,-0.026,-0.0245,-0.0222,-0.0175,-0.0168,-0.0297,-0.0302,-0.0263,-0.0263,-0.0264,-0.0264,0,-0.0896,-0.0891,-0.0867,-0.0827,-0.0811,-0.0784,-0.0718,-0.068,-0.0638,-0.0593,-0.0576,-0.0501,-0.0409,-0.0334,-0.0242,-0.0211,-0.0134,-0.0119,-0.0073,-0.0046,-0.0145,-0.0153,-0.0044,-0.0042,-0.004,-0.0038,-0.0037,0,-0.0907,-0.0907,-0.087,-0.0851,-0.0836,-0.0791,-0.0757,-0.0699,-0.0653,-0.059,-0.0557,-0.0468,-0.0408,-0.0229,-0.011,-0.0003,-0.0084,0.0078,0.0038,-0.0129,-0.0118,-0.0129,-0.0138,0.0141,0.0143,0.0146,0.0147,0,-0.0914,-0.0912,-0.0889,-0.0861,-0.0831,-0.078,-0.0725,-0.0689,-0.0628,-0.0605,-0.0557,-0.0513,-0.032,-0.0143,0.0025,0.0081,0.0077,0.0124,-0.0022,0.0065,0.005,0.0058,0.0042,0.0167,0.0165,0.0164,0.0162,0.0162,-0.0911,-0.0899,-0.0879,-0.0846,-0.0818,-0.0769,-0.0744,-0.0704,-0.0663,-0.0624,-0.0543,-0.0472,-0.0277,-0.0009,0.0131,0.0257,0.0213,0.0224,0.0216,0.0205,0.0204,0.0192,0.0335,0.0334,0.0333,0.0332,0.0332,0,-0.0884,-0.088,-0.0856,-0.0817,-0.0791,-0.0792,-0.0721,-0.0687,-0.0692,-0.0651,-0.0608,-0.0367,-0.0127,0.003,0.0283,0.0409,0.0396,0.0396,0.0366,0.0349,0.0333,0.0335,0.0503,0.0503,0.0503,0.0502,0,0,-0.0865,-0.0842,-0.0833,-0.0797,-0.0796,-0.0766,-0.0751,-0.0734,-0.0684,-0.0655,-0.0609,-0.0415,-0.0163,0.0031,0.0244,0.0365,0.0295,0.0372,0.0238,0.0165,0.0145,0.0259,0.0247,0,0,0,0,0]}],[{"header":{"parameterUnit":"m.s-1","parameterCategory":2,"la1":30.2991,"la2":30.254,"lo1":-89.0895,"lo2":-89.0444,"dy":0.0017,"dx":0.0017,"nx":28,"ny":28,"refTime":"2024-10-14T09:00:00:Z","depth":"4","parameterNumber":2,"parameterNumberName":"U-component_of_CURRENTS"},"data":[0,0,0,0,0,0,0,0,0,0,0,0,0,0,0,0,0,0,0,0,0,0,0,0,0,0,0,0,0,0,0,0,0,0,0,0,0,0,0,0,0,0,0,0,0,0,0,0,0,0,0,0,0,0,0,0,0,0,-0.0801,-0.0801,0,-0.0806,-0.0806,-0.0807,-0.0819,-0.0819,-0.0819,-0.0819,-0.0818,-0.0818,-0.0817,0,0,0,0,0,0,0,0,0,0,0,0,0,-0.0873,-0.0871,-0.0801,-0.0801,-0.0801,-0.0806,-0.0806,-0.0807,-0.0819,-0.0819,-0.0819,-0.0819,-0.0818,-0.0818,-0.0817,0,0,0,0,0,0,0,0,0,0,0,0,0,-0.0857,-0.087,-0.0801,-0.0807,-0.0807,-0.0806,-0.0806,-0.0807,-0.0819,-0.0819,-0.0819,-0.0819,-0.0818,-0.0818,-0.0817,-0.0811,0,0,-0.0817,-0.0816,0,0,0,0,0,0,0,0,-0.0858,-0.0854,-0.0806,-0.0806,-0.0807,-0.0811,-0.0831,-0.0807,-0.0818,-0.0815,-0.0819,-0.0819,-0.0814,-0.0814,-0.0816,-0.0811,-0.0811,-0.0817,-0.0816,-0.0816,-0.0816,0,0,0,0,0,0,0,-0.0859,-0.0854,-0.0804,-0.0806,-0.0806,-0.0834,-0.0831,-0.0827,-0.0814,-0.0816,-0.0816,-0.0815,-0.0815,-0.0816,-0.0816,-0.0811,-0.0817,-0.0816,-0.0816,-0.0816,-0.0841,-0.0842,0,0,0,0,0,0,-0.0851,-0.0855,-0.0804,-0.0804,-0.0832,-0.0832,-0.0829,-0.081,-0.0814,-0.0815,-0.0815,-0.0816,-0.0817,-0.0816,-0.0816,-0.086,-0.0816,-0.0816,-0.0816,-0.084,-0.0841,-0.0842,0,0,0,0,0,0,-0.0853,-0.0846,-0.0804,-0.083,-0.0827,-0.083,-0.0809,-0.081,-0.0826,-0.0814,-0.0814,-0.0831,-0.0817,-0.0817,-0.0827,-0.0858,-0.0816,-0.0816,-0.0839,-0.084,-0.0841,-0.0916,0,0,0,0,0,0,-0.0854,-0.0846,-0.083,-0.0829,-0.0825,-0.0815,-0.0809,-0.081,-0.0824,-0.0825,-0.0827,-0.0827,-0.0817,-0.0827,-0.0827,-0.0857,-0.0815,-0.0838,-0.084,-0.0841,-0.0912,-0.0919,-0.0925,0,0,0,0,0,-0.0857,-0.0836,-0.0829,-0.0823,-0.0802,-0.0816,-0.0817,-0.0821,-0.0825,-0.0836,-0.0837,-0.0827,-0.0837,-0.0828,-0.0827,-0.0858,-0.0837,-0.0839,-0.0841,-0.0909,-0.0918,-0.0925,0,0,0,0,0,0,-0.0846,-0.0835,-0.0828,-0.08,-0.0812,-0.0818,-0.0824,-0.083,-0.0841,-0.0843,-0.0835,-0.0835,-0.0849,-0.0842,-0.0833,-0.0868,-0.0836,-0.0838,-0.0889,-0.0897,-0.0903,-0.0916,-0.0815,0,0,0,0,0,-0.0838,-0.0827,-0.0825,-0.0805,-0.0813,-0.0822,-0.0828,-0.0836,-0.0843,-0.0849,-0.085,-0.0852,-0.0853,-0.0867,-0.0856,-0.0883,-0.0874,-0.0902,-0.0909,-0.0915,-0.0923,-0.0962,-0.0973,-0.0848,-0.0848,-0.0848,0,0,-0.0822,-0.082,-0.0808,-0.0805,-0.0814,-0.0827,-0.0827,-0.0844,-0.0854,-0.0846,-0.0862,-0.0865,-0.086,-0.0882,-0.0891,-0.0887,-0.0937,-0.0917,-0.0922,-0.0928,-0.0965,-0.0977,-0.0988,-0.0849,-0.0849,-0.0849,0,0,-0.0815,-0.0793,-0.0796,-0.0811,-0.0831,-0.0836,-0.0846,-0.0863,-0.0872,-0.0886,-0.0884,-0.0914,-0.091,-0.093,-0.0934,-0.0972,-0.0957,-0.0971,-0.1035,-0.1073,-0.1084,-0.1094,-0.1064,-0.1071,-0.0993,-0.0993,-0.0993,0,-0.0801,-0.0795,-0.0801,-0.0822,-0.0827,-0.0844,-0.0856,-0.0868,-0.0887,-0.0896,-0.0896,-0.0933,-0.0932,-0.0981,-0.1003,-0.099,-0.0989,-0.1009,-0.1084,-0.1094,-0.1102,-0.107,-0.1076,-0.0996,-0.0996,-0.0996,-0.0995,0,-0.0804,-0.0806,-0.0814,-0.0836,-0.0847,-0.0861,-0.0877,-0.089,-0.0901,-0.0919,-0.0962,-0.0986,-0.1031,-0.103,-0.1031,-0.1105,-0.1072,-0.1076,-0.1069,-0.112,-0.1081,-0.1086,-0.1002,-0.1001,-0.0999,-0.0998,0,0,-0.0753,-0.0805,-0.0809,-0.0822,-0.0854,-0.0861,-0.0878,-0.0899,-0.0909,-0.096,-0.1,-0.1045,-0.1104,-0.1115,-0.1145,-0.118,-0.1233,-0.1172,-0.1173,-0.1149,-0.1279,-0.1141,-0.1133,-0.1266,-0.1268,-0.127,-0.1214,0,-0.0753,-0.0793,-0.0814,-0.0835,-0.0849,-0.0866,-0.0875,-0.0899,-0.0919,-0.0963,-0.1035,-0.1096,-0.1127,-0.1185,-0.1233,-0.1239,-0.1257,-0.1245,-0.1226,-0.1224,-0.1103,-0.1139,-0.1277,-0.1218,-0.1219,-0.122,-0.1221,0,-0.0743,-0.0772,-0.0802,-0.0828,-0.0834,-0.0847,-0.0856,-0.0872,-0.0933,-0.0974,-0.1083,-0.1148,-0.1269,-0.1269,-0.1345,-0.1345,-0.1326,-0.1305,-0.1303,-0.1156,-0.1098,-0.1163,-0.123,-0.1229,-0.1228,-0.1228,-0.1227,0,-0.0702,-0.0752,-0.0773,-0.0786,-0.0824,-0.0829,-0.0842,-0.0874,-0.0883,-0.1021,-0.1066,-0.1218,-0.1307,-0.1351,-0.1356,-0.1379,-0.1359,-0.1385,-0.1221,-0.1208,-0.1317,-0.1307,-0.14,-0.14,-0.14,-0.14,-0.14,0,-0.0679,-0.0693,-0.0759,-0.0768,-0.0769,-0.0808,-0.0811,-0.0849,-0.0909,-0.0928,-0.1107,-0.1145,-0.1339,-0.1358,-0.1357,-0.1294,-0.138,-0.1227,-0.1199,-0.1341,-0.1335,-0.1317,-0.1309,-0.1398,-0.1399,-0.1399,-0.1399,0,-0.0624,-0.0675,-0.0695,-0.0743,-0.0751,-0.0752,-0.0779,-0.0779,-0.0868,-0.0906,-0.0979,-0.1125,-0.1175,-0.1251,-0.1286,-0.1273,-0.1227,-0.1157,-0.125,-0.1227,-0.1049,-0.1045,-0.1026,-0.1021,-0.1017,-0.1013,-0.101,0,-0.0601,-0.0613,-0.0663,-0.0663,-0.0684,-0.0697,-0.0693,-0.0761,-0.0768,-0.084,-0.0852,-0.0947,-0.1033,-0.0974,-0.1063,-0.106,-0.1037,-0.1031,-0.1108,-0.1043,-0.1019,-0.1021,-0.1022,-0.1004,-0.1002,-0.1001,-0.1,0,-0.0544,-0.0572,-0.0589,-0.0593,-0.0596,-0.0595,-0.0605,-0.0603,-0.067,-0.0751,-0.0742,-0.0787,-0.0803,-0.0879,-0.0878,-0.0862,-0.1077,-0.0987,-0.0998,-0.1071,-0.1016,-0.0996,-0.1002,-0.0986,-0.0988,-0.0989,-0.099,0,-0.0494,-0.0489,-0.0515,-0.0506,-0.0505,-0.0487,-0.051,-0.0512,-0.0528,-0.0622,-0.0582,-0.0658,-0.0749,-0.076,-0.0727,-0.0749,-0.0773,-0.0802,-0.0824,-0.0841,-0.0813,-0.0718,-0.0571,0,0,0,0,0,-0.0443,-0.043,-0.042,-0.0406,-0.0402,-0.0404,-0.0437,-0.0471,-0.0529,-0.0499,-0.0547,-0.0548,-0.0572,-0.0596,-0.0588,-0.065,-0.0777,-0.064,-0.0822,-0.0904,-0.0921,-0.091,0,0,0,0,0,0,-0.0405,-0.0402,-0.0397,-0.0323,-0.0292,-0.0281,-0.0305,-0.0353,-0.035,-0.0421,-0.0434,-0.0498,-0.0528,-0.0554,-0.0564,-0.0576,-0.0681,-0.0679,-0.0678,-0.0895,-0.091,-0.0924,-0.0918,0,0,0,0,0]},{"header":{"parameterUnit":"m.s-1","parameterCategory":2,"la1":30.2991,"la2":30.254,"lo1":-89.0895,"lo2":-89.0444,"dy":0.0017,"dx":0.0017,"nx":28,"ny":28,"refTime":"2024-10-14T09:00:00:Z","depth":"4","parameterNumber":3,"parameterNumberName":"V-component_of_CURRENTS"},"data":[0,0,0,0,0,0,0,0,0,0,0,0,0,0,0,0,0,0,0,0,0,0,0,0,0,0,0,0,0,0,0,0,0,0,0,0,0,0,0,0,0,0,0,0,0,0,0,0,0,0,0,0,0,0,0,0,0,0,0.0172,0.0172,0,0.0211,0.0211,0.0212,0.0263,0.0264,0.0265,0.0266,0.031,0.0311,0.0311,0,0,0,0,0,0,0,0,0,0,0,0,0,0.0083,0.0085,0.0172,0.0172,0.0173,0.0211,0.0211,0.0212,0.0263,0.0264,0.0265,0.0266,0.031,0.0311,0.0311,0,0,0,0,0,0,0,0,0,0,0,0,0,0.0123,0.0086,0.0172,0.0202,0.0205,0.0211,0.0211,0.0212,0.0263,0.0264,0.0265,0.0266,0.031,0.0311,0.0311,0.0292,0,0,0.0313,0.0314,0,0,0,0,0,0,0,0,0.0121,0.0126,0.0197,0.02,0.0203,0.0233,0.0196,0.0239,0.0263,0.0242,0.0266,0.0267,0.0283,0.0286,0.0292,0.0294,0.0296,0.0313,0.0314,0.0314,0.0314,0,0,0,0,0,0,0,0.0118,0.0124,0.0188,0.0198,0.0201,0.0194,0.0201,0.0205,0.0256,0.0244,0.0247,0.025,0.0285,0.0291,0.0294,0.0297,0.0313,0.0314,0.0315,0.0315,0.0278,0.0276,0,0,0,0,0,0,0.0114,0.0122,0.0187,0.0189,0.0163,0.0195,0.0203,0.0223,0.0256,0.0262,0.0249,0.0252,0.029,0.0293,0.0295,0.027,0.0314,0.0315,0.0315,0.0279,0.0277,0.0276,0,0,0,0,0,0,0.0112,0.012,0.0185,0.0155,0.0162,0.0195,0.0217,0.0223,0.0237,0.026,0.0267,0.0257,0.0291,0.0294,0.0298,0.0272,0.0315,0.0316,0.0281,0.0278,0.0277,0.0222,0,0,0,0,0,0,0.0109,0.0119,0.0134,0.0155,0.0164,0.0191,0.0216,0.0223,0.0236,0.0241,0.0269,0.0274,0.0292,0.0297,0.0299,0.0274,0.0316,0.0282,0.028,0.0277,0.0226,0.0218,0.0212,0,0,0,0,0,0.0106,0.0119,0.0135,0.0142,0.0183,0.0191,0.0194,0.0221,0.0235,0.0238,0.0254,0.0274,0.0281,0.0297,0.0299,0.0274,0.0284,0.028,0.0277,0.0229,0.022,0.0212,0,0,0,0,0,0,0.0104,0.0126,0.0144,0.0168,0.018,0.0199,0.0203,0.0218,0.0233,0.0238,0.0262,0.0268,0.0255,0.0271,0.0288,0.0253,0.0282,0.028,0.0244,0.0236,0.023,0.0232,0.0317,0,0,0,0,0,0.0105,0.0112,0.0137,0.0155,0.016,0.018,0.0187,0.0203,0.0217,0.0226,0.0241,0.0249,0.024,0.0247,0.0246,0.0235,0.0276,0.0217,0.021,0.0204,0.0206,0.0268,0.0268,0.0265,0.0265,0.0265,0,0,0.0107,0.0121,0.0126,0.0152,0.0163,0.0152,0.0188,0.0195,0.0177,0.0225,0.0209,0.0225,0.023,0.0213,0.0209,0.0229,0.022,0.02,0.0195,0.0201,0.0265,0.0266,0.0267,0.0263,0.0264,0.0264,0,0,0.0091,0.0127,0.0116,0.0121,0.0133,0.0139,0.0138,0.0155,0.0157,0.0149,0.0165,0.0168,0.0169,0.0165,0.0162,0.0115,0.0177,0.0115,0.0091,0.0151,0.0153,0.0155,0.0185,0.0191,0.0119,0.0118,0.0118,0,0.0093,0.0089,0.0115,0.0101,0.0091,0.0126,0.0101,0.0102,0.0116,0.0099,0.0137,0.0124,0.0139,0.0102,0.0097,0.0099,0.015,0.0123,0.0145,0.0148,0.0152,0.0183,0.0189,0.0115,0.0116,0.0116,0.0116,0,0.0057,0.0057,0.005,0.0037,0.003,0.002,0.0018,0.001,0.002,0.0019,-0.0001,0.0035,0.004,0.0032,0.0059,0.0065,0.0098,0.0128,0.0173,0.0149,0.0182,0.019,0.0111,0.0112,0.0113,0.0114,0,0,0.0048,0.0027,0.0025,-0.0,-0.0006,-0.002,-0.006,-0.0094,-0.013,-0.0097,-0.0138,-0.0119,-0.0067,-0.0065,-0.0029,0.0023,0.0086,0.0099,0.0104,0.014,0.022,0.0179,0.0184,0.0148,0.0149,0.015,0.0227,0,0.001,-0.0034,-0.004,-0.0096,-0.0123,-0.0124,-0.017,-0.0196,-0.0203,-0.0231,-0.0195,-0.0197,-0.0115,-0.009,-0.0026,0.0056,0.011,0.0062,0.0228,0.0232,0.0209,0.0193,0.0155,0.0233,0.0235,0.0237,0.0238,0,-0.003,-0.0059,-0.0115,-0.0177,-0.0191,-0.0223,-0.0295,-0.0328,-0.0363,-0.0364,-0.0338,-0.0286,-0.022,-0.0136,0.0027,0.001,0.0119,0.0187,0.0192,0.0183,0.0207,0.0266,0.0253,0.0252,0.0251,0.025,0.0249,0,-0.0061,-0.0116,-0.0168,-0.0184,-0.0242,-0.0284,-0.032,-0.037,-0.041,-0.0425,-0.0432,-0.0349,-0.0288,-0.0133,0.0033,0.0064,0.0195,0.0251,0.0299,0.0297,0.0339,0.0336,0.0365,0.0365,0.0365,0.0364,0.0364,0,-0.0101,-0.0144,-0.0186,-0.0212,-0.0294,-0.0321,-0.0405,-0.0439,-0.0485,-0.0521,-0.047,-0.0453,-0.0264,-0.0164,-0.0003,0.0159,0.0184,0.029,0.0318,0.0307,0.0301,0.0343,0.034,0.0367,0.0367,0.0366,0.0366,0,-0.0124,-0.0146,-0.0211,-0.0279,-0.0306,-0.0362,-0.0446,-0.0498,-0.0532,-0.0573,-0.0558,-0.0504,-0.0353,-0.0218,-0.0001,0.0106,0.0255,0.0298,0.0232,0.0256,0.0331,0.0323,0.0394,0.0393,0.0392,0.0392,0.0391,0,-0.0142,-0.0171,-0.0248,-0.029,-0.0322,-0.0401,-0.0453,-0.0512,-0.0549,-0.0584,-0.0589,-0.05,-0.043,-0.0203,-0.004,0.019,0.0233,0.0295,0.0363,0.0315,0.0336,0.0329,0.0323,0.039,0.039,0.039,0.039,0,-0.0177,-0.0194,-0.0244,-0.0317,-0.0377,-0.0455,-0.0518,-0.0544,-0.0588,-0.0619,-0.0585,-0.0486,-0.0372,-0.0185,-0.0055,0.0129,0.0251,0.0291,0.0296,0.0361,0.0313,0.0332,0.0326,0.0388,0.0388,0.0388,0.0388,0,-0.0198,-0.0234,-0.0281,-0.0348,-0.0421,-0.048,-0.0521,-0.0544,-0.0581,-0.0593,-0.0568,-0.0474,-0.0407,-0.0219,-0.0078,0.006,0.0146,0.0225,0.0235,0.0239,0.0168,0.0082,0.0108,0,0,0,0,0,-0.0218,-0.025,-0.0312,-0.0387,-0.0453,-0.0491,-0.0552,-0.0577,-0.0595,-0.0563,-0.0568,-0.0455,-0.0273,-0.0214,-0.0069,-0.006,0.0169,0.0114,0.0265,0.0376,0.0379,0.0317,0,0,0,0,0,0,-0.0235,-0.0285,-0.0309,-0.0392,-0.0441,-0.0518,-0.055,-0.0567,-0.0545,-0.0544,-0.0449,-0.0412,-0.0238,-0.0349,-0.0065,-0.0029,0.009,0.0191,0.0195,0.0375,0.0377,0.0379,0.0316,0,0,0,0,0]}]]